Wind_Speed
17 18 18 19 19 20 20 19 18 18 18 18 18 18 18 18 17 18 17 18 18 18 19 19 20 21 19 16 16 18 21 20 20 17 12 8 9 8 9 8 9 8 9 13 16 19 19 19 16 10 9 13 13 15 18 17 18 13 7 8 9 11 13 11 8 9 6 5 6 11 19 14 10 20 27 26 25 28 28 27 22 13 15 25 30 41 48 44
17 18 19 20 20 20 20 19 20 19 19 20 20 20 20 20 20 20 19 19 18 17 18 18 19 19 21 21 17 18 20 18 22 18 5 4 8 7 8 5 5 8 11 15 17 18 18 18 16 11 10 11 11 13 13 14 18 12 5 8 12 12 11 9 9 7 7 10 8 9 17 15 13 16 21 19 16 23 20 10 8 6 10 19 32 45 48 47
18 19 20 20 20 20 20 19 20 19 20 20 20 20 20 21 21 21 21 20 20 19 19 19 20 20 20 22 20 18 19 21 23 13 2 4 7 6 8 7 10 12 13 16 17 18 15 14 15 13 12 11 11 13 12 12 15 15 10 7 13 12 8 11 13 10 9 12 9 11 20 19 21 23 19 13 11 17 12 8 9 16 22 28 39 44 45 47
19 20 20 20 20 20 19 19 20 20 20 20 21 21 20 21 21 22 22 21 20 19 20 19 20 20 19 21 21 18 19 22 15 4 3 7 8 10 10 10 13 14 16 16 16 15 10 9 11 12 10 9 12 13 13 15 12 11 13 9 12 11 9 14 14 13 17 18 11 10 14 14 22 27 21 13 9 9 9 19 19 20 31 39 43 43 44 45
19 20 20 20 20 20 20 20 20 20 21 21 21 21 22 22 22 22 22 21 20 19 19 19 19 20 20 21 20 18 17 12 3 2 7 10 11 11 10 11 13 14 15 14 12 11 6 6 7 8 8 6 8 9 11 19 15 8 13 16 14 11 8 13 15 16 19 22 17 11 10 12 17 20 22 18 10 11 12 25 30 30 38 46 50 47 45 46
21 21 21 21 21 21 21 20 20 21 21 21 22 22 22 22 22 21 21 21 21 19 18 18 18 18 19 20 20 16 8 5 8 10 11 12 10 8 7 10 12 13 14 10 9 6 4 6 7 7 6 4 6 8 10 18 18 10 13 18 19 17 10 11 19 21 22 20 14 13 16 15 12 11 18 20 17 25 24 25 31 35 43 50 54 51 47 46
22 22 22 23 22 21 21 20 21 21 21 21 22 22 21 22 22 21 21 21 20 19 18 18 18 18 18 20 19 13 8 17 18 9 8 8 6 5 5 9 11 13 13 10 8 6 6 9 10 10 6 5 7 9 12 18 19 14 12 14 18 20 16 17 21 23 27 26 21 24 22 16 13 10 13 14 18 28 26 27 35 39 47 53 55 53 51 50
23 23 23 23 22 21 20 20 20 21 21 20 22 21 21 22 21 21 21 20 20 19 17 16 16 16 17 18 18 14 17 19 13 3 4 6 5 6 5 8 11 12 12 10 9 8 9 11 12 12 6 6 8 10 13 15 16 16 14 15 15 17 19 23 26 25 27 29 30 28 20 21 23 15 12 16 20 23 21 29 43 43 48 53 54 54 53 51
23 23 23 23 23 22 20 20 20 20 20 21 22 22 22 22 21 20 20 20 20 18 17 16 16 15 14 15 12 12 18 14 8 4 5 5 8 7 8 9 10 12 10 9 10 11 11 12 13 11 6 8 11 12 15 12 9 11 14 15 14 16 19 21 25 29 27 25 25 20 14 25 31 16 13 23 28 29 23 30 47 44 46 48 51 53 52 50
23 24 23 23 23 22 21 20 19 20 20 21 22 22 23 22 20 20 20 20 18 18 18 15 15 13 12 12 5 6 14 11 6 7 5 7 9 10 12 12 10 12 10 10 12 13 13 12 14 14 12 11 10 11 14 13 12 15 16 16 16 19 23 21 22 29 29 24 24 19 11 22 28 13 9 15 19 22 19 34 43 43 46 45 47 50 50 49
23 24 23 24 23 23 22 21 20 20 20 21 22 23 23 22 20 19 19 19 18 18 18 16 14 12 10 10 8 9 13 10 7 10 10 11 10 12 13 11 12 13 11 12 14 16 15 15 16 15 9 7 11 13 14 13 15 20 20 16 18 19 23 23 21 26 24 18 25 23 12 18 22 12 14 14 9 12 21 37 38 42 46 43 43 45 46 46
24 24 24 24 24 23 22 21 20 20 21 22 23 23 22 21 19 19 19 18 17 16 17 15 11 11 10 13 18 13 12 8 8 10 14 16 14 14 13 11 12 13 13 15 17 17 16 18 18 14 9 9 11 10 12 19 23 23 18 12 14 13 17 21 20 25 20 13 21 19 9 15 17 15 22 18 11 13 27 38 39 42 43 43 43 44 44 43
25 25 25 25 24 23 23 21 20 20 21 22 23 22 21 20 17 17 17 16 15 14 15 12 9 10 8 16 21 14 9 7 6 7 8 14 18 17 17 16 14 14 14 17 19 18 15 16 18 17 17 13 9 9 16 24 23 18 12 8 9 9 12 17 20 24 19 18 20 14 6 14 14 18 27 21 13 15 23 29 35 39 41 42 43 44 44 42
26 25 25 25 24 23 22 21 20 21 22 21 21 20 19 18 16 15 14 15 14 12 12 10 7 6 8 19 22 10 5 7 6 6 2 8 15 13 16 18 17 15 14 17 21 20 18 16 17 18 18 14 13 15 16 16 12 9 8 6 6 7 7 10 16 19 16 22 23 14 7 12 9 15 26 24 18 19 21 22 27 32 36 39 40 42 43 43
27 26 26 25 24 22 22 21 20 21 21 19 19 18 18 16 14 13 13 15 12 11 11 9 7 5 10 22 19 3 8 7 5 5 2 6 9 6 6 9 12 12 12 18 20 21 22 20 17 14 13 13 13 12 7 7 6 4 5 6 5 7 7 7 13 18 16 19 21 14 6 8 8 14 22 22 19 18 20 23 25 29 32 34 36 37 40 42
28 27 26 26 24 22 22 22 20 21 20 17 17 17 14 13 11 10 13 15 11 9 9 7 8 6 7 13 8 3 6 8 7 7 7 9 9 5 0 2 8 10 12 16 16 19 23 20 17 15 12 9 7 5 4 5 5 3 4 5 5 6 6 6 9 17 18 14 16 14 6 4 7 12 19 22 20 15 14 19 26 30 32 34 35 36 37 39
29 28 27 26 24 23 23 21 19 21 18 15 16 15 11 10 11 11 11 12 10 8 7 4 5 7 11 12 9 7 6 8 13 12 10 11 11 6 3 7 10 10 12 14 14 15 19 18 12 10 9 6 4 3 4 5 5 3 3 3 6 6 5 7 7 11 17 15 15 13 7 5 7 8 15 22 22 16 12 13 20 29 33 34 35 35 36 37
29 28 27 26 25 23 23 21 19 20 17 13 15 15 12 9 11 11 5 5 6 6 5 4 1 3 10 11 9 10 11 15 19 17 17 18 15 11 8 10 11 10 9 10 10 7 13 12 6 5 4 4 4 4 5 6 4 3 3 2 5 6 6 8 7 7 14 18 16 13 9 7 8 8 12 20 23 17 14 14 14 21 30 35 34 34 35 37
28 28 26 26 26 24 23 20 18 19 16 12 13 13 11 11 10 5 2 1 3 5 5 6 9 5 10 13 16 20 23 24 23 19 20 20 17 15 12 12 13 11 4 3 4 4 8 6 4 4 3 4 6 7 8 7 8 9 7 4 4 6 6 8 9 7 11 15 16 15 10 7 9 10 9 16 21 18 16 16 16 16 22 33 35 34 36 38
29 28 26 27 26 25 23 20 18 16 13 12 15 14 13 15 9 1 7 14 17 16 17 19 19 21 25 29 30 27 27 25 22 22 20 15 12 14 17 16 13 9 4 3 3 6 5 4 4 6 6 7 7 9 10 9 11 13 11 8 7 7 6 7 10 11 10 10 14 16 10 7 9 11 9 11 16 14 12 13 15 18 17 26 35 35 37 39
29 27 27 27 26 26 22 20 19 13 8 11 17 16 12 13 7 5 16 25 26 23 25 28 27 31 35 36 33 27 23 23 23 22 17 14 11 8 14 14 8 5 4 5 4 5 5 5 6 8 9 10 10 10 10 10 12 12 10 8 7 7 7 7 11 12 10 8 10 14 13 10 9 9 9 9 10 9 10 10 12 19 21 20 32 37 37 39
30 28 27 26 27 27 22 21 18 8 6 9 13 14 9 9 10 12 17 19 28 29 24 25 25 31 34 32 30 25 19 18 20 17 11 11 12 8 8 7 5 4 3 3 3 4 4 6 9 10 10 10 10 10 11 13 12 10 7 6 6 7 8 9 10 10 8 6 7 12 14 11 9 9 9 9 7 8 13 16 17 21 23 21 26 35 37 36
30 29 28 27 29 27 22 20 12 3 4 8 12 12 9 12 15 18 18 12 23 28 19 15 17 23 23 17 14 15 15 14 15 16 12 10 12 12 8 6 5 4 4 4 4 4 4 6 9 10 10 10 11 10 11 12 10 8 6 4 6 7 6 6 7 8 6 6 5 8 11 8 8 9 9 12 11 11 16 20 22 25 27 26 24 32 37 36
30 30 28 28 29 27 21 13 3 1 3 7 11 11 11 16 16 19 19 7 10 15 9 7 9 13 13 9 8 9 14 14 13 11 10 11 11 10 7 5 4 4 5 6 7 7 7 7 8 9 10 10 11 11 11 9 7 8 8 6 8 9 8 7 7 8 5 6 5 6 5 6 9 11 10 11 11 12 17 17 18 23 28 31 26 30 37 39
31 30 29 28 28 25 16 5 1 4 2 4 8 11 13 17 17 19 16 3 5 7 5 5 5 6 7 7 8 10 12 13 15 13 9 9 7 4 4 4 4 5 7 7 7 7 9 11 11 10 10 10 11 10 10 9 7 8 8 9 11 11 11 11 10 9 4 7 6 8 6 5 8 13 12 8 8 11 16 14 14 20 27 30 25 28 37 40
31 30 29 26 24 21 11 4 5 6 2 1 6 10 12 16 18 19 10 1 3 4 3 2 2 3 6 5 7 9 7 6 11 17 14 9 7 5 5 3 4 6 8 6 5 4 7 10 10 10 11 11 10 9 10 10 7 7 7 8 11 12 12 13 10 7 3 5 5 8 8 3 4 10 12 10 10 12 14 14 14 18 26 28 25 29 37 41
31 29 27 22 19 16 9 4 6 6 1 5 10 11 13 16 17 16 6 1 3 3 2 1 2 2 5 6 6 5 6 7 7 12 13 10 11 9 7 4 4 5 5 4 4 3 5 9 9 10 11 9 8 7 9 10 8 8 6 6 10 11 12 12 8 5 5 3 6 7 7 3 3 9 11 11 12 14 14 15 15 16 23 26 26 32 39 43
30 27 23 17 14 10 7 5 5 7 7 9 12 13 15 16 16 11 1 3 2 3 2 2 2 4 9 10 9 8 13 13 6 5 5 7 12 10 7 7 6 5 5 5 6 4 4 8 8 8 9 7 7 8 10 11 10 9 7 7 10 9 10 9 6 5 4 2 6 6 6 6 5 6 10 13 15 16 15 17 16 15 20 24 27 35 41 46
28 23 18 14 10 7 6 5 5 8 9 10 13 16 16 15 12 4 3 2 2 2 3 3 2 8 14 12 11 13 15 10 4 4 3 5 10 9 6 7 6 5 5 6 7 6 6 7 6 7 7 6 7 9 11 11 10 9 8 10 11 9 9 7 5 5 3 3 6 7 6 7 6 4 9 13 14 16 13 14 16 16 21 25 29 37 43 46
26 19 13 10 7 7 5 4 7 10 11 13 16 17 16 12 5 2 1 1 1 3 5 2 4 13 16 10 7 9 7 6 6 6 4 6 9 9 8 8 6 3 4 5 6 8 9 10 8 7 8 9 9 9 10 11 12 10 6 8 10 8 7 5 5 3 3 4 8 9 7 7 6 5 9 11 12 13 11 12 14 15 20 25 30 38 44 45
23 15 10 8 7 7 6 6 10 12 12 14 16 16 12 5 2 2 2 2 3 5 5 2 5 12 13 9 7 6 3 4 5 3 3 5 6 6 4 5 4 2 3 4 4 6 9 9 6 7 12 13 10 9 9 10 12 10 6 5 6 4 4 4 3 3 3 6 8 9 7 8 9 7 8 11 13 15 14 14 15 13 16 23 31 39 44 45
21 12 7 7 7 7 7 8 10 10 10 12 15 14 6 2 2 1 1 5 4 3 3 5 8 10 13 11 6 3 3 3 3 4 3 2 3 4 3 3 3 1 2 3 3 4 6 6 6 9 15 14 8 7 6 6 8 8 6 4 3 3 3 3 2 3 4 5 7 8 7 8 9 7 8 12 14 15 14 15 16 15 16 23 32 39 43 45
18 11 6 6 7 8 7 8 10 10 9 11 13 9 2 3 3 1 2 3 2 3 5 7 10 12 12 9 3 2 2 2 2 3 5 3 3 4 5 6 5 3 2 2 1 2 3 4 6 8 9 10 9 5 3 4 6 7 6 5 4 3 2 3 3 3 3 4 9 11 8 5 4 5 10 15 15 15 16 20 22 21 22 26 33 40 43 45
15 9 6 5 6 9 7 7 11 11 9 11 9 4 3 2 2 2 3 2 2 6 7 8 12 13 9 4 2 2 1 2 3 3 4 3 2 3 3 6 7 5 2 1 1 2 2 3 5 6 4 6 7 7 6 4 4 5 5 5 5 4 2 3 3 3 4 5 8 8 6 5 5 5 9 13 13 14 19 26 26 24 28 32 36 40 42 43
12 8 6 4 6 8 7 7 11 10 9 11 6 2 3 3 2 3 3 3 3 5 8 10 10 8 6 3 1 1 2 2 3 3 3 3 3 3 3 4 8 6 3 1 2 2 1 4 6 7 6 5 4 6 7 5 4 2 3 5 6 5 3 1 3 5 6 4 5 4 4 5 5 5 9 11 9 11 16 21 21 20 25 31 33 37 40 42
11 8 6 5 7 7 6 7 9 8 10 10 4 1 2 2 3 2 2 4 4 6 10 10 5 3 4 2 2 1 3 2 3 2 2 3 4 5 4 3 7 9 6 3 2 1 0 3 5 7 8 6 6 6 4 4 3 1 2 5 4 5 4 3 3 4 3 3 5 2 3 4 2 3 9 12 10 10 12 13 15 17 23 27 29 34 38 41
14 9 3 3 8 9 6 6 8 8 10 7 3 2 2 2 3 1 3 4 5 7 8 6 2 1 3 3 3 4 2 2 2 2 1 1 3 5 5 4 6 10 10 7 2 1 2 3 7 7 6 6 7 7 3 4 5 1 1 2 0 4 7 2 2 5 1 2 4 1 4 3 1 2 6 8 9 9 9 10 11 14 20 22 27 35 39 41
15 8 4 3 8 10 7 5 6 8 7 3 2 4 1 2 3 2 2 3 3 5 4 3 2 1 4 5 4 6 6 4 2 3 2 1 2 4 3 4 7 10 13 10 3 2 2 2 6 4 2 7 6 2 1 3 7 5 1 2 2 3 6 2 2 4 0 2 4 3 3 2 3 4 4 5 9 9 9 9 10 12 14 18 27 35 39 41
12 6 7 6 8 10 7 5 6 7 4 2 2 3 2 4 6 2 2 3 2 3 3 3 2 2 5 6 6 6 5 4 5 5 2 1 2 4 3 3 5 8 12 11 5 2 2 1 3 3 5 7 4 1 1 3 4 4 1 1 2 2 3 2 3 3 2 3 2 2 2 2 5 5 4 6 9 11 11 10 10 12 14 21 29 34 37 40
11 5 6 6 9 10 7 8 8 4 2 1 2 3 4 6 7 3 5 6 2 1 3 3 3 3 4 6 7 5 2 3 5 4 1 1 2 5 4 2 1 3 9 11 5 1 1 2 1 5 8 5 2 0 3 3 3 3 2 1 2 1 1 1 4 3 2 2 2 1 1 4 6 4 6 8 9 10 12 12 11 12 18 27 33 36 39 40
13 4 4 7 7 7 9 9 6 1 1 2 2 4 5 8 10 5 3 8 5 3 5 5 5 4 5 5 6 5 3 3 4 2 1 2 1 2 3 3 5 3 4 7 4 1 1 1 1 3 5 2 3 4 0 1 1 2 3 3 4 2 1 1 3 3 1 2 3 3 1 6 6 2 5 8 8 10 12 14 12 13 22 29 34 40 43 42
12 3 5 9 4 7 9 6 3 1 2 4 6 7 10 11 10 6 3 7 7 4 6 5 5 4 5 5 5 5 4 3 4 2 2 4 4 4 4 8 11 8 1 4 2 1 2 2 0 3 4 5 8 8 1 1 4 4 3 3 4 3 2 3 2 4 3 2 1 3 1 6 5 6 7 8 9 9 12 15 13 16 26 31 34 40 44 44
13 4 5 11 5 4 4 2 4 3 2 8 12 13 14 9 6 7 5 4 4 2 3 4 3 3 3 3 4 4 3 3 4 2 3 5 6 7 9 14 15 8 1 3 1 1 1 2 0 3 4 5 7 5 2 2 2 4 4 4 3 3 4 4 3 3 4 4 1 2 2 5 5 10 10 9 8 4 9 17 15 15 24 29 32 37 42 44
15 7 3 11 6 1 3 2 3 4 4 10 12 12 14 8 6 9 5 2 3 2 2 3 3 3 4 3 4 4 3 3 3 3 3 3 5 12 16 18 14 3 3 2 0 1 1 0 1 2 3 4 3 2 3 2 1 2 4 5 5 5 3 2 4 2 2 4 1 2 3 6 6 11 12 12 10 6 2 14 20 19 21 27 31 37 41 42
13 6 6 15 9 7 6 5 1 3 5 9 11 10 10 7 9 12 7 5 5 4 3 5 6 7 5 3 5 6 3 3 3 3 3 2 5 11 14 18 15 4 8 5 4 3 1 1 2 3 2 1 1 1 1 1 2 2 4 6 5 5 5 3 2 3 1 4 3 3 3 6 8 14 16 15 12 9 7 3 16 21 22 25 30 37 42 43
8 3 8 17 10 8 9 11 7 5 4 6 8 7 6 7 10 11 7 5 5 6 6 6 8 7 4 4 7 7 3 4 5 3 4 4 3 5 12 18 11 6 11 9 6 4 2 1 2 3 3 2 2 4 1 2 3 3 5 8 6 5 5 4 1 1 2 4 5 3 4 6 10 15 16 15 12 9 9 6 3 10 15 21 28 35 41 44
6 2 4 9 7 6 13 15 14 10 6 6 4 4 7 9 9 10 5 3 8 12 6 4 3 4 5 8 7 5 4 4 5 4 4 5 3 6 14 14 1 9 9 8 6 3 3 1 2 4 5 6 7 8 6 3 4 4 6 9 8 7 3 3 1 3 2 2 4 4 6 6 8 13 14 12 12 8 7 8 6 8 12 17 25 33 35 36
7 2 4 5 4 4 6 12 17 15 12 10 3 3 8 10 10 11 7 7 13 11 3 3 6 7 10 10 4 3 6 6 4 3 2 3 3 5 8 6 5 6 6 7 4 2 2 2 3 3 4 8 8 8 6 3 4 4 5 7 8 8 5 3 2 4 2 3 4 5 5 4 6 12 12 11 10 7 6 8 9 13 16 15 18 25 29 30
9 4 5 7 5 5 8 15 19 14 11 9 4 3 9 11 11 11 8 9 11 7 3 7 12 14 16 12 3 2 5 6 4 2 2 4 4 3 4 4 3 2 3 3 1 1 2 2 3 2 4 6 5 5 3 1 3 5 6 7 6 7 6 2 2 1 6 5 3 2 3 2 4 8 10 11 11 7 9 16 18 18 18 18 17 17 22 27
10 6 8 11 6 8 12 14 14 9 7 6 5 5 8 9 12 14 11 10 9 6 8 12 16 17 17 13 6 4 6 8 8 6 3 3 4 2 1 1 1 4 5 2 0 1 1 2 2 1 2 5 4 4 4 1 1 3 6 8 8 8 7 3 0 2 4 2 1 2 2 3 3 5 9 11 12 13 16 18 18 19 19 19 18 16 16 18
10 9 9 10 5 6 9 11 9 6 3 4 5 7 8 8 12 15 14 12 10 8 10 13 16 16 14 12 10 7 9 10 10 11 10 8 6 5 3 0 1 3 4 1 1 3 1 1 2 3 3 4 4 7 7 3 3 3 6 7 7 5 3 0 1 1 2 2 1 3 3 3 4 5 8 9 12 14 13 13 15 19 21 20 18 16 16 16
12 11 10 8 4 4 7 8 7 5 4 5 7 9 9 11 16 16 11 10 13 17 18 15 14 12 10 10 12 16 20 20 17 18 17 14 14 14 12 10 8 3 0 0 1 1 1 0 2 2 2 4 4 5 5 4 6 4 4 4 3 1 3 4 4 5 4 1 1 2 2 3 4 4 5 7 10 10 10 14 17 17 18 20 18 14 13 14
Wind_Direction
344 343 341 337 336 333 335 337 334 333 330 329 329 329 329 328 325 323 323 322 320 319 317 314 311 312 317 323 330 326 324 325 328 327 320 346 4 336 318 289 280 299 314 319 317 311 294 278 269 266 261 241 242 246 233 226 224 211 197 222 224 224 221 210 199 203 189 196 216 203 206 207 212 220 223 233 238 234 237 244 252 251 229 216 194 170 167 174
340 339 338 335 334 333 335 334 331 332 330 329 328 328 330 330 330 328 327 325 321 319 316 316 316 320 324 327 339 334 326 327 321 318 311 2 3 4 6 348 331 339 331 322 317 315 299 281 269 267 277 264 250 239 235 225 217 215 207 217 225 226 221 215 213 206 182 204 231 240 234 227 223 224 220 228 234 234 237 224 206 165 170 185 167 160 166 173
338 337 336 333 332 332 332 330 329 329 327 327 325 325 327 328 330 328 326 325 322 321 320 322 320 322 325 324 336 340 330 327 320 309 264 328 329 329 342 338 338 337 326 321 318 316 301 278 269 267 281 280 260 241 237 226 214 221 222 221 229 227 232 227 222 226 226 223 213 227 242 242 237 232 224 226 226 232 225 175 159 126 134 152 157 160 166 172
337 335 334 332 331 331 328 327 326 326 325 324 323 323 325 327 328 326 325 322 321 321 319 321 319 322 326 322 333 345 333 327 318 279 261 303 305 310 328 338 339 331 317 315 313 311 300 277 267 263 273 278 265 254 243 228 219 223 220 232 235 223 234 231 227 237 245 252 245 230 238 243 245 241 239 238 232 249 197 184 195 163 154 156 158 165 168 171
335 333 332 330 329 328 325 324 324 326 325 325 326 325 326 327 326 324 323 320 319 317 315 317 318 321 322 320 332 343 339 334 305 278 293 286 298 314 340 342 335 329 316 308 303 299 286 279 275 265 261 266 268 261 247 232 231 246 238 243 244 233 235 231 233 240 244 254 263 261 245 244 251 246 246 246 233 251 210 187 201 192 175 165 165 169 171 173
333 332 332 329 328 327 324 325 324 325 326 327 328 325 326 325 324 323 319 319 316 314 315 315 317 319 319 319 328 339 339 289 289 309 294 282 298 321 346 331 329 336 324 304 287 276 266 285 273 253 247 255 262 252 260 247 234 243 252 247 245 244 248 238 230 235 246 256 264 259 259 259 256 248 245 241 236 248 236 198 197 194 181 172 169 170 173 176
333 332 331 330 329 327 324 324 324 326 329 328 326 327 328 325 323 321 317 316 313 312 313 312 315 318 319 319 326 333 275 276 300 309 289 297 307 317 325 310 324 334 326 314 285 257 271 291 272 255 252 252 261 257 267 264 247 241 250 249 248 247 250 252 242 235 239 248 254 256 267 269 253 260 256 244 240 249 245 208 194 188 178 172 170 172 176 179
334 332 331 331 330 327 323 323 326 330 330 328 328 329 329 325 322 318 316 314 312 310 307 310 314 314 320 321 331 325 283 289 317 306 273 307 295 296 289 290 325 330 319 315 297 286 285 291 282 267 253 243 258 264 262 265 257 245 245 251 255 254 250 252 255 249 239 241 250 254 266 265 258 266 271 266 255 262 264 209 190 181 173 169 171 174 177 180
336 334 334 332 330 327 324 324 327 329 329 330 331 330 328 324 320 316 313 311 309 305 304 308 308 310 315 316 331 314 291 311 336 277 256 269 271 275 262 271 319 329 314 309 303 299 286 280 283 280 293 286 271 269 262 254 254 253 253 254 252 257 255 249 252 253 246 242 246 252 258 259 265 272 273 269 259 267 267 200 181 174 169 169 172 174 176 180
338 336 336 332 329 327 324 326 326 326 328 330 330 328 326 320 316 312 308 309 306 303 303 302 302 305 302 305 323 282 297 326 315 277 262 259 261 256 255 260 291 308 300 299 298 292 286 280 290 302 311 304 290 287 274 254 258 271 274 268 252 248 251 248 248 252 251 243 240 245 251 258 265 265 263 262 252 261 235 184 175 168 168 170 172 174 176 179
337 335 334 331 330 328 325 327 327 327 329 329 327 327 323 316 312 307 305 308 306 305 300 297 299 295 292 286 248 258 307 321 281 269 254 251 254 250 253 254 270 283 280 286 284 279 283 283 297 311 308 307 315 311 294 283 287 280 276 276 258 244 244 244 245 250 252 245 236 236 246 262 262 252 243 243 250 247 187 172 171 166 167 170 173 174 176 178
337 334 333 332 332 330 327 327 328 329 330 328 327 327 320 313 311 307 308 308 305 304 295 294 292 283 292 269 251 276 320 307 272 262 239 233 238 239 242 247 255 259 270 282 276 275 280 278 286 296 291 305 318 314 302 309 314 296 279 275 265 252 239 233 235 243 246 249 234 223 235 254 248 244 245 247 256 223 174 167 168 166 169 170 173 175 175 178
337 334 334 333 333 332 329 330 332 330 329 330 330 329 320 316 316 313 311 304 299 295 288 289 282 279 275 261 274 306 321 290 274 269 243 229 234 239 240 245 251 251 266 276 273 279 285 277 277 280 284 292 294 291 297 303 307 298 281 266 263 264 241 224 227 237 238 248 231 192 211 246 239 245 246 250 245 200 170 169 170 167 170 170 173 175 175 177
337 335 335 334 335 335 331 334 336 330 330 332 332 330 323 323 323 316 306 291 285 280 278 279 279 275 238 268 298 318 261 275 274 273 282 222 233 247 248 247 250 250 261 271 273 277 279 279 276 276 277 272 275 286 293 295 293 289 285 270 239 242 246 219 221 228 231 244 228 185 217 243 237 247 242 245 236 194 170 174 175 170 171 171 173 175 176 178
337 336 335 335 338 338 333 337 338 330 332 334 333 332 327 332 329 308 286 271 265 263 269 274 278 257 247 280 300 253 219 269 291 283 269 227 235 249 257 248 246 254 269 272 274 274 270 269 262 259 263 261 270 278 282 290 282 263 261 261 231 225 244 226 219 220 222 239 226 197 225 240 231 246 238 232 225 200 175 173 178 175 172 172 175 176 177 181
339 338 337 335 339 340 336 340 339 330 333 335 334 335 332 341 339 307 281 267 255 255 264 280 288 259 253 288 293 215 252 283 318 311 254 236 239 244 311 255 258 271 282 280 286 282 264 252 247 246 250 253 256 255 276 293 276 241 227 245 247 224 224 230 228 221 217 231 229 210 205 226 229 239 235 224 217 208 186 174 175 178 177 175 177 179 178 179
341 340 339 336 338 340 337 341 340 330 332 335 336 342 343 343 338 318 286 262 249 251 265 295 309 268 255 270 268 272 296 302 320 319 285 263 246 232 209 235 258 264 273 286 302 287 250 234 236 241 240 232 220 225 249 260 251 247 231 244 263 247 220 219 231 224 213 218 230 221 204 228 247 230 220 221 218 207 199 191 175 174 178 177 177 179 179 178
341 340 338 336 337 339 339 341 339 330 328 333 340 348 352 343 334 330 303 244 235 243 262 248 184 274 262 260 263 275 285 295 308 308 298 287 256 229 214 225 247 253 270 293 302 269 225 219 221 227 235 220 218 217 220 241 262 277 244 229 257 257 240 219 222 225 210 213 226 226 212 222 254 243 208 211 217 208 201 214 202 180 175 178 179 178 179 180
340 339 338 337 337 339 340 340 338 330 324 332 344 346 351 352 347 351 68 117 240 247 265 223 197 234 271 268 271 276 283 293 301 298 297 291 257 231 221 221 235 244 265 319 305 260 213 213 218 220 244 230 224 226 230 253 279 292 286 266 252 251 246 224 226 233 212 211 222 224 214 201 230 247 221 202 210 212 206 212 224 216 182 173 178 179 179 182
341 340 340 338 336 337 341 340 336 330 321 332 347 351 358 0 1 315 300 297 281 270 268 255 239 249 264 272 276 279 289 296 292 285 290 293 262 227 220 223 230 234 219 185 267 288 251 234 230 221 229 233 238 243 246 257 264 274 282 282 284 273 259 224 223 235 218 209 222 221 212 195 213 237 238 205 200 209 212 207 216 229 215 177 173 180 181 185
342 342 342 338 333 335 340 339 333 328 322 336 351 2 11 6 4 314 314 305 295 285 270 265 256 252 260 269 277 283 291 295 289 281 278 277 269 223 210 217 223 226 221 209 234 280 270 249 243 230 226 231 239 247 253 260 258 263 269 278 287 280 275 246 227 231 217 209 224 218 211 212 219 234 244 223 198 201 207 210 212 219 230 201 173 177 184 188
342 342 342 336 330 333 339 337 332 324 330 352 6 19 24 358 334 317 322 308 301 300 284 276 263 253 261 267 273 276 273 277 281 277 270 264 255 220 195 201 215 223 221 222 242 274 267 254 253 245 237 234 239 245 249 255 258 262 264 271 274 272 286 272 244 235 215 207 222 214 211 214 220 233 245 237 215 206 206 214 224 218 223 217 178 173 182 186
342 342 341 335 328 332 339 336 334 329 351 17 24 23 10 338 323 316 321 304 299 305 296 282 258 249 262 273 279 268 247 247 261 266 264 249 226 209 199 198 215 227 218 214 225 246 247 248 249 243 237 233 238 242 241 249 254 254 253 258 260 259 275 278 261 254 224 201 200 204 212 212 214 229 240 238 228 223 222 220 228 228 224 224 200 180 182 183
342 341 340 335 328 332 341 341 349 334 342 39 32 13 348 331 326 324 327 310 289 306 315 302 263 252 265 290 306 259 237 236 241 261 259 234 217 208 207 207 217 236 234 226 231 243 249 256 256 245 236 226 230 237 234 238 248 248 241 238 253 259 259 266 284 290 256 214 186 163 203 223 211 217 227 235 233 231 234 227 226 231 231 231 217 189 185 186
342 341 337 334 331 334 348 3 11 329 310 77 29 1 344 334 328 327 332 330 270 293 327 318 263 264 284 293 283 256 250 243 243 266 266 236 230 225 229 215 206 237 242 243 254 259 258 261 265 258 245 227 224 232 229 228 244 253 237 229 245 259 263 267 286 307 286 229 204 158 192 237 212 215 219 223 229 230 235 233 225 225 229 231 216 188 186 190
341 339 336 336 333 336 359 46 1 358 145 152 346 338 334 329 324 324 330 11 294 285 322 326 209 271 308 303 283 275 280 262 255 269 265 243 229 233 255 211 177 232 237 241 255 254 254 253 253 256 251 235 226 230 228 223 237 253 228 216 238 249 255 260 276 298 266 236 230 190 194 228 226 221 219 212 217 224 230 236 230 219 220 222 208 188 187 190
341 338 336 338 334 336 7 43 12 25 49 305 321 320 323 323 321 322 329 91 325 294 293 303 175 303 327 314 304 300 288 289 282 266 257 248 232 228 246 218 181 227 221 229 243 209 230 241 243 256 258 244 229 230 229 219 228 249 229 215 234 236 243 252 260 265 250 279 280 226 184 162 227 224 213 209 216 222 225 229 229 218 215 213 201 190 189 192
342 337 337 340 333 334 6 21 17 13 342 322 318 317 325 326 319 319 33 98 326 305 319 307 239 322 334 311 286 277 279 285 293 261 241 237 230 226 237 222 205 222 205 215 248 242 234 238 242 258 263 252 230 224 225 219 229 247 240 244 248 236 239 247 250 256 248 288 288 246 178 181 229 226 208 208 214 220 221 224 228 220 213 207 195 190 192 195
342 338 339 345 334 329 358 10 360 349 337 328 322 324 332 327 318 326 99 75 324 325 337 326 315 326 326 312 287 282 278 263 238 238 205 204 222 222 233 236 226 236 225 219 249 265 251 252 266 275 279 270 243 227 220 217 230 242 242 256 266 255 241 236 238 263 274 254 262 250 201 205 235 221 203 207 213 218 216 221 228 221 213 205 190 188 193 193
342 340 346 357 350 337 340 326 323 332 336 335 330 330 330 322 321 48 56 348 306 336 341 330 327 322 317 315 302 289 266 228 236 248 229 227 239 232 234 250 245 241 257 248 263 276 273 282 285 271 269 270 265 246 224 220 230 240 246 258 269 260 234 222 218 238 285 263 253 251 227 219 241 223 203 205 207 210 209 217 225 218 211 203 187 186 191 190
343 343 357 12 18 5 346 325 328 335 340 337 331 328 327 324 57 89 9 346 290 313 342 318 311 318 315 322 315 294 281 251 241 222 229 238 241 238 238 255 240 243 305 279 275 284 278 282 274 249 251 255 266 261 237 226 229 233 230 238 270 262 209 210 189 165 230 254 259 260 240 225 238 229 206 205 201 202 204 212 217 209 205 197 185 185 189 188
343 342 356 12 26 21 4 352 344 345 347 337 327 328 338 37 36 138 307 338 304 293 334 309 313 322 314 316 309 300 337 291 218 188 216 209 197 216 201 196 189 181 298 261 272 287 266 255 242 248 251 243 247 266 249 233 232 229 214 205 246 250 192 193 180 182 224 250 260 254 235 227 238 231 202 199 202 204 204 211 211 200 196 190 182 185 188 187
343 341 346 354 13 14 7 7 6 10 5 340 330 334 29 71 18 319 294 329 311 308 319 307 307 310 308 309 298 301 345 292 259 215 209 196 208 229 220 212 185 158 221 219 319 306 287 271 240 242 250 229 221 235 234 232 235 228 206 186 208 219 187 178 193 224 244 267 254 236 229 235 242 234 200 192 200 203 203 212 212 197 189 186 182 184 187 186
345 346 348 344 357 357 357 3 9 19 2 337 341 7 44 22 342 330 319 296 274 298 302 299 303 304 301 288 275 314 282 258 298 281 231 201 209 252 250 224 200 185 208 212 288 252 291 298 245 233 234 207 202 198 203 226 240 232 202 185 210 210 185 178 184 203 214 254 251 224 214 200 194 224 201 189 199 199 203 213 211 198 188 183 182 184 185 186
350 346 346 355 355 347 344 349 6 17 348 337 359 60 26 354 304 333 325 274 274 288 290 292 294 299 301 282 306 2 172 250 340 336 255 215 202 231 233 215 204 194 165 148 229 221 260 268 249 262 267 239 219 204 206 223 246 253 184 194 217 202 193 219 212 204 188 223 257 215 204 215 208 221 197 187 198 198 207 214 206 193 183 176 178 182 184 184
355 340 339 360 359 353 337 339 6 9 342 350 29 53 337 283 275 330 307 279 303 316 309 303 286 276 305 319 333 320 185 232 326 342 255 236 234 224 217 219 200 188 173 172 218 184 42 277 275 294 290 269 255 238 205 178 209 307 164 205 217 202 230 285 266 251 148 183 265 219 204 273 293 216 207 200 201 204 211 214 203 188 172 168 174 179 183 184
356 348 342 345 354 0 345 343 9 353 340 12 47 319 296 248 261 279 291 299 318 325 320 321 334 316 317 317 307 310 297 263 277 287 254 254 258 232 226 235 201 191 190 180 193 202 169 280 286 282 281 290 282 256 226 183 187 135 146 235 15 210 240 269 278 295 35 180 277 238 196 250 173 209 239 210 197 216 221 212 207 187 166 165 175 180 183 184
351 6 53 21 350 353 350 356 0 335 340 30 331 303 257 239 261 237 292 316 321 332 321 303 312 339 329 320 302 314 318 306 298 289 271 265 275 246 227 229 210 202 195 177 178 244 168 293 290 273 291 312 309 253 250 247 197 167 195 300 47 201 236 230 217 269 220 182 295 298 238 236 194 217 250 204 197 213 218 209 204 190 171 170 177 181 183 183
355 29 50 21 344 348 358 352 331 325 348 42 302 302 245 266 288 276 35 23 330 324 307 272 290 317 316 306 293 312 317 297 305 306 281 126 270 259 238 229 223 210 193 176 180 236 146 78 288 311 338 321 321 105 170 253 196 161 245 301 91 175 220 201 206 216 169 182 254 291 303 269 234 219 202 218 218 201 195 199 197 189 181 177 178 180 181 180
15 49 50 12 341 342 340 321 316 324 355 289 254 272 258 288 310 323 34 28 10 277 283 275 292 296 287 284 290 305 303 271 290 305 278 232 281 279 275 283 311 230 191 179 183 216 98 87 256 308 330 336 336 245 186 187 164 152 197 193 173 259 311 286 258 239 160 150 178 196 295 264 253 220 206 236 235 201 187 185 190 192 186 180 178 179 179 180
22 53 41 4 334 317 316 314 314 264 218 263 240 258 284 311 316 309 16 14 354 244 244 260 267 275 278 285 301 309 302 280 282 292 270 257 272 282 294 345 356 330 181 172 183 184 130 102 199 300 324 327 273 284 258 117 222 182 187 190 187 211 47 46 286 276 174 159 177 153 247 265 265 284 258 246 224 205 190 179 183 191 188 182 179 179 179 180
15 52 36 14 329 284 303 309 316 277 225 310 318 306 316 320 311 307 349 1 341 256 236 258 260 266 280 288 301 303 304 295 280 284 285 280 271 244 278 324 321 309 288 144 164 160 132 123 117 275 269 258 265 269 241 336 307 307 284 239 194 180 145 150 246 301 311 291 196 130 213 258 280 342 320 270 232 209 188 179 180 185 186 182 178 178 178 179
356 349 45 31 6 297 327 331 332 348 290 322 330 320 321 317 290 309 326 328 318 253 234 268 253 249 273 290 301 300 317 303 271 269 288 290 288 271 290 313 308 291 217 121 126 353 49 114 74 291 281 279 274 261 130 83 332 322 292 260 220 197 169 171 222 282 300 297 18 67 289 263 307 347 338 304 286 255 180 174 172 176 182 178 172 173 175 178
345 322 354 16 2 277 25 16 316 336 325 330 335 323 321 312 282 305 305 258 290 260 251 280 241 238 262 275 281 282 316 305 263 274 281 272 296 292 300 316 319 310 122 92 121 134 330 313 90 13 343 350 349 354 36 31 256 239 263 266 251 234 213 230 278 306 296 273 124 91 265 262 309 341 342 338 338 339 191 170 165 166 174 171 165 169 174 178
350 326 324 357 27 119 63 31 348 331 337 338 332 316 315 312 307 307 285 265 282 248 246 289 277 267 266 282 285 274 249 216 238 314 298 252 288 291 306 327 336 36 110 105 102 114 125 186 111 91 114 118 103 190 94 346 269 253 269 279 277 256 229 219 297 4 324 293 4 61 274 280 321 337 340 347 356 354 343 170 162 163 170 168 162 167 173 176
5 353 327 348 24 84 26 13 23 6 347 343 327 309 310 314 318 314 284 263 293 281 264 272 281 280 278 309 307 297 271 212 223 285 290 283 297 289 304 316 331 86 114 122 124 114 100 169 158 146 178 198 225 236 247 14 320 306 303 299 301 279 232 182 79 23 230 311 350 358 316 319 326 331 335 340 346 352 353 359 111 138 150 157 158 164 171 175
25 47 3 348 351 359 355 358 7 357 325 323 319 289 312 321 332 337 311 274 317 314 286 229 258 296 310 319 317 302 304 275 250 259 264 271 270 275 297 307 12 124 125 132 143 129 69 334 215 169 204 237 242 252 276 320 296 291 308 305 304 307 318 90 90 239 210 358 324 308 357 4 313 315 326 330 332 343 360 1 24 78 112 142 155 160 166 172
30 27 37 14 332 331 349 334 332 328 312 310 287 259 324 338 346 344 324 302 316 319 299 253 297 311 312 315 314 279 310 311 281 271 275 290 303 304 317 350 90 128 129 127 143 132 89 270 241 180 234 249 243 252 265 279 273 275 293 293 294 314 347 47 270 261 128 108 251 279 10 17 295 308 323 328 322 317 345 17 51 82 101 123 143 152 157 162
28 15 349 354 331 286 295 303 307 309 307 313 316 326 341 344 338 334 325 316 317 321 346 316 312 320 318 314 301 255 308 314 294 302 333 320 324 326 336 9 32 36 73 102 162 120 101 244 252 274 284 271 261 258 250 259 294 294 301 306 322 340 337 312 257 3 87 110 219 268 4 300 284 314 319 323 327 341 29 44 51 67 92 112 120 132 146 155
27 22 333 333 323 294 303 310 311 306 307 331 348 336 338 339 332 331 325 312 305 320 340 321 311 316 315 311 308 266 271 286 279 271 278 306 324 316 310 17 339 358 18 36 319 340 323 256 269 344 333 303 319 355 353 322 262 301 316 331 354 351 330 319 10 83 87 93 216 96 40 294 304 328 309 321 352 21 38 42 42 49 71 96 105 112 129 146
24 24 347 330 316 309 323 327 327 317 311 354 354 332 335 337 329 327 317 300 293 306 321 313 310 315 312 310 317 307 293 289 273 262 256 250 256 260 255 270 338 8 17 13 318 336 340 276 310 44 47 306 330 10 349 349 78 15 333 345 350 328 296 310 34 44 118 169 193 100 73 286 293 311 304 330 11 30 35 29 32 45 62 76 85 96 114 132
7 10 2 342 307 316 337 331 333 337 319 332 336 325 320 317 321 325 321 312 314 316 317 313 310 314 314 312 318 317 309 300 289 283 272 254 247 251 253 261 264 267 340 54 28 309 208 188 331 44 51 291 309 355 340 19 48 5 319 331 311 199 115 89 39 13 13 34 167 128 133 239 269 297 317 350 11 27 32 26 27 39 59 74 78 87 105 126
Height
1537 1536 1535 1533 1532 1531 1529 1528 1526 1525 1524 1522 1521 1519 1518 1517 1515 1514 1513 1511 1510 1508 1507 1506 1504 1503 1501 1500 1498 1495 1492 1490 1488 1487 1486 1484 1483 1482 1481 1481 1481 1482 1482 1482 1482 1481 1480 1480 1481 1482 1482 1482 1482 1481 1481 1482 1483 1484 1483 1484 1478 1470 1463 1458 1461 1463 1463 1465 1463 1463 1463 1465 1467 1466 1467 1468 1467 1466 1467 1466 1465 1464 1464 1464 1463 1464 1467 1471
1537 1535 1534 1532 1531 1529 1528 1527 1525 1523 1522 1521 1519 1518 1516 1515 1514 1513 1511 1510 1508 1507 1506 1504 1503 1501 1500 1498 1496 1494 1491 1489 1486 1485 1485 1483 1483 1482 1481 1481 1481 1481 1481 1481 1481 1480 1479 1478 1480 1481 1481 1481 1480 1479 1480 1479 1479 1478 1476 1477 1469 1460 1456 1456 1459 1459 1461 1463 1461 1462 1461 1462 1464 1463 1464 1465 1463 1463 1464 1465 1465 1462 1462 1465 1466 1465 1466 1468
1535 1534 1532 1531 1530 1528 1527 1525 1524 1522 1521 1519 1518 1516 1515 1513 1512 1511 1510 1508 1506 1505 1504 1502 1501 1500 1498 1497 1495 1493 1490 1488 1484 1483 1483 1483 1482 1482 1481 1481 1481 1480 1480 1480 1480 1479 1478 1477 1479 1480 1480 1480 1478 1478 1478 1476 1476 1473 1472 1471 1459 1454 1456 1456 1458 1458 1459 1460 1460 1462 1460 1459 1459 1460 1461 1461 1461 1460 1461 1463 1463 1462 1462 1465 1468 1468 1467 1468
1534 1533 1531 1530 1528 1527 1525 1524 1522 1521 1519 1517 1516 1514 1513 1512 1510 1509 1508 1506 1505 1504 1502 1501 1500 1498 1498 1496 1494 1492 1490 1486 1482 1481 1482 1482 1481 1481 1481 1480 1480 1480 1480 1479 1479 1478 1477 1477 1478 1479 1479 1478 1477 1477 1475 1473 1473 1469 1467 1462 1453 1455 1458 1456 1457 1459 1458 1457 1458 1459 1460 1459 1457 1458 1458 1457 1461 1460 1458 1458 1457 1458 1460 1463 1468 1469 1468 1469
1534 1532 1530 1529 1527 1525 1524 1522 1520 1519 1517 1516 1514 1513 1511 1510 1509 1507 1506 1505 1503 1502 1501 1500 1499 1498 1496 1495 1494 1492 1491 1487 1480 1480 1481 1480 1480 1480 1479 1479 1479 1479 1479 1478 1477 1477 1477 1477 1477 1478 1479 1477 1476 1475 1471 1470 1471 1468 1462 1456 1453 1456 1456 1455 1458 1458 1457 1456 1456 1456 1457 1457 1456 1457 1455 1455 1459 1456 1454 1455 1454 1454 1454 1456 1462 1466 1467 1468
1532 1530 1529 1527 1525 1524 1522 1520 1519 1517 1515 1514 1513 1511 1510 1508 1507 1506 1504 1503 1502 1501 1500 1499 1497 1497 1495 1494 1492 1492 1493 1486 1479 1480 1479 1479 1479 1479 1479 1479 1479 1479 1478 1477 1476 1476 1476 1477 1477 1478 1478 1476 1476 1474 1470 1469 1471 1467 1459 1454 1455 1456 1455 1456 1457 1457 1457 1456 1454 1453 1452 1454 1455 1454 1453 1453 1453 1451 1451 1452 1452 1451 1450 1451 1455 1460 1464 1466
1530 1529 1527 1525 1523 1522 1520 1519 1517 1515 1514 1513 1511 1510 1508 1507 1505 1504 1502 1501 1500 1499 1498 1497 1496 1495 1494 1492 1491 1491 1491 1483 1478 1479 1478 1478 1479 1478 1478 1478 1478 1478 1477 1476 1476 1476 1476 1477 1477 1477 1477 1476 1474 1472 1470 1468 1467 1464 1457 1453 1454 1456 1456 1455 1455 1455 1456 1454 1453 1452 1451 1451 1452 1452 1451 1451 1450 1448 1450 1449 1448 1448 1447 1449 1451 1455 1459 1462
1529 1527 1525 1523 1522 1520 1518 1517 1515 1514 1513 1511 1509 1508 1507 1505 1503 1502 1501 1499 1498 1497 1496 1495 1495 1494 1493 1491 1490 1490 1486 1480 1477 1478 1477 1477 1477 1477 1477 1477 1477 1477 1476 1476 1476 1476 1476 1476 1476 1476 1476 1474 1473 1470 1469 1468 1464 1460 1455 1453 1454 1455 1455 1455 1454 1453 1453 1452 1452 1453 1451 1447 1447 1450 1449 1447 1447 1446 1447 1446 1445 1446 1446 1447 1449 1452 1455 1459
1528 1526 1524 1522 1520 1518 1517 1515 1514 1512 1511 1509 1508 1506 1505 1503 1501 1500 1499 1497 1496 1495 1494 1494 1494 1493 1492 1491 1492 1489 1480 1476 1477 1476 1476 1475 1475 1476 1476 1476 1476 1476 1475 1475 1475 1476 1476 1476 1475 1475 1474 1472 1471 1469 1468 1468 1462 1456 1455 1454 1454 1454 1454 1454 1452 1449 1450 1451 1452 1452 1450 1445 1444 1450 1447 1443 1444 1444 1444 1444 1441 1444 1446 1447 1448 1450 1453 1457
1526 1524 1522 1520 1518 1516 1515 1513 1512 1511 1509 1508 1506 1505 1503 1501 1499 1497 1496 1495 1494 1493 1492 1492 1492 1491 1491 1490 1493 1488 1476 1474 1476 1474 1474 1473 1473 1473 1473 1474 1475 1475 1475 1474 1474 1474 1475 1475 1474 1474 1473 1471 1469 1468 1466 1465 1460 1455 1456 1454 1452 1452 1451 1452 1450 1447 1447 1448 1449 1449 1448 1445 1444 1450 1446 1439 1441 1442 1442 1442 1440 1441 1443 1446 1449 1450 1452 1454
1525 1523 1521 1519 1517 1515 1513 1512 1510 1509 1507 1506 1505 1503 1501 1498 1497 1495 1494 1493 1492 1491 1490 1490 1490 1490 1490 1489 1491 1484 1473 1473 1474 1472 1473 1472 1471 1472 1472 1473 1473 1474 1474 1473 1473 1473 1473 1473 1473 1473 1472 1470 1468 1466 1463 1461 1459 1457 1456 1453 1449 1449 1448 1449 1448 1445 1444 1444 1445 1446 1447 1446 1444 1445 1440 1437 1442 1441 1441 1441 1440 1441 1442 1445 1448 1450 1451 1453
1524 1522 1519 1517 1515 1513 1511 1510 1509 1507 1506 1504 1502 1500 1498 1496 1494 1493 1492 1491 1490 1490 1489 1488 1489 1488 1488 1487 1483 1477 1471 1472 1472 1470 1470 1470 1470 1470 1470 1471 1471 1472 1472 1472 1472 1471 1472 1471 1472 1472 1471 1470 1468 1466 1461 1459 1459 1457 1455 1453 1448 1447 1444 1443 1443 1443 1442 1440 1440 1445 1450 1446 1440 1437 1433 1437 1442 1440 1440 1440 1438 1440 1441 1444 1447 1449 1450 1452
1522 1520 1518 1515 1513 1511 1510 1508 1507 1505 1504 1502 1500 1498 1495 1493 1492 1491 1490 1489 1488 1488 1487 1487 1487 1486 1487 1482 1473 1471 1471 1470 1469 1468 1467 1468 1468 1468 1469 1470 1470 1471 1471 1471 1470 1470 1470 1470 1470 1470 1470 1470 1468 1467 1462 1458 1459 1456 1453 1452 1450 1448 1442 1438 1439 1441 1440 1437 1437 1444 1451 1444 1433 1431 1431 1435 1440 1439 1440 1439 1437 1438 1439 1442 1445 1446 1448 1451
1521 1519 1516 1514 1512 1510 1508 1507 1505 1504 1502 1500 1498 1495 1493 1491 1491 1489 1488 1487 1486 1486 1485 1486 1485 1485 1485 1476 1468 1470 1469 1468 1468 1466 1466 1466 1466 1467 1467 1468 1468 1468 1469 1469 1468 1468 1468 1469 1469 1468 1468 1469 1467 1467 1463 1459 1458 1456 1454 1450 1449 1450 1442 1435 1436 1438 1437 1435 1435 1441 1447 1440 1432 1430 1429 1433 1438 1437 1439 1439 1438 1438 1439 1441 1443 1445 1447 1449
1520 1517 1515 1512 1510 1509 1507 1505 1504 1502 1500 1498 1496 1493 1491 1490 1488 1487 1486 1484 1484 1484 1484 1484 1484 1484 1483 1472 1466 1468 1467 1467 1467 1465 1466 1465 1465 1466 1465 1466 1466 1466 1467 1467 1466 1466 1466 1467 1468 1467 1466 1467 1467 1467 1465 1461 1457 1455 1456 1451 1446 1446 1442 1434 1432 1433 1434 1432 1432 1439 1443 1437 1431 1428 1426 1431 1435 1434 1436 1438 1438 1438 1439 1440 1442 1444 1446 1447
1519 1516 1514 1511 1509 1508 1506 1504 1502 1500 1499 1496 1494 1492 1490 1489 1487 1485 1483 1482 1483 1483 1483 1484 1483 1484 1482 1472 1466 1467 1466 1466 1465 1465 1465 1464 1464 1464 1463 1464 1464 1465 1465 1465 1465 1464 1464 1465 1465 1465 1465 1465 1466 1466 1466 1465 1459 1454 1455 1454 1447 1444 1442 1437 1430 1427 1430 1431 1429 1433 1437 1434 1428 1425 1425 1428 1431 1431 1432 1435 1437 1437 1438 1439 1441 1443 1444 1447
1518 1515 1513 1510 1508 1507 1505 1503 1501 1499 1497 1495 1493 1490 1489 1487 1485 1483 1482 1482 1482 1482 1483 1483 1482 1483 1477 1469 1466 1465 1464 1464 1464 1464 1464 1463 1463 1462 1462 1462 1462 1463 1463 1463 1463 1461 1462 1463 1463 1463 1463 1463 1463 1465 1468 1468 1462 1455 1453 1454 1449 1444 1441 1438 1431 1425 1426 1430 1427 1427 1432 1431 1425 1423 1424 1425 1427 1428 1429 1431 1434 1436 1437 1438 1439 1441 1443 1446
1517 1514 1512 1509 1507 1505 1504 1502 1500 1497 1495 1494 1492 1490 1488 1486 1485 1483 1481 1481 1482 1482 1483 1481 1483 1483 1470 1463 1465 1463 1462 1463 1462 1463 1462 1461 1461 1460 1460 1461 1461 1462 1461 1461 1461 1460 1460 1461 1461 1462 1461 1461 1461 1462 1467 1464 1458 1455 1453 1452 1448 1443 1440 1436 1431 1424 1423 1427 1426 1426 1430 1429 1425 1421 1422 1423 1423 1425 1426 1427 1430 1433 1436 1437 1438 1440 1442 1444
1516 1513 1510 1507 1505 1504 1503 1501 1499 1496 1494 1493 1491 1490 1487 1485 1484 1482 1481 1481 1482 1481 1481 1479 1479 1478 1466 1460 1463 1461 1461 1462 1461 1460 1459 1459 1459 1459 1459 1459 1460 1460 1460 1461 1461 1460 1460 1460 1460 1462 1461 1461 1459 1458 1460 1457 1454 1454 1451 1448 1446 1442 1437 1431 1427 1422 1421 1425 1425 1425 1428 1428 1425 1421 1420 1421 1421 1422 1424 1425 1426 1429 1433 1436 1438 1439 1441 1443
1515 1512 1509 1506 1504 1503 1502 1500 1498 1495 1493 1492 1490 1488 1485 1484 1484 1483 1481 1480 1479 1477 1476 1475 1473 1470 1464 1460 1459 1460 1460 1460 1459 1458 1457 1458 1458 1458 1458 1459 1459 1459 1458 1459 1460 1459 1459 1461 1460 1459 1459 1458 1456 1455 1454 1454 1454 1452 1450 1449 1445 1441 1435 1426 1423 1420 1418 1424 1423 1421 1426 1426 1424 1421 1418 1419 1421 1420 1421 1424 1425 1425 1428 1433 1436 1438 1440 1441
1513 1510 1508 1505 1503 1502 1500 1498 1496 1494 1493 1492 1490 1488 1487 1487 1487 1486 1481 1474 1471 1472 1470 1468 1469 1466 1460 1458 1457 1459 1461 1458 1456 1455 1455 1457 1457 1456 1457 1457 1458 1457 1456 1457 1458 1457 1458 1460 1458 1455 1454 1453 1453 1453 1452 1453 1452 1450 1450 1449 1446 1443 1437 1425 1419 1417 1416 1422 1422 1419 1424 1425 1422 1421 1417 1416 1419 1419 1419 1421 1423 1424 1425 1429 1432 1435 1438 1440
1512 1509 1507 1504 1501 1500 1499 1497 1494 1493 1493 1492 1491 1489 1489 1490 1489 1488 1484 1473 1464 1465 1465 1462 1464 1461 1456 1456 1456 1459 1462 1459 1455 1453 1453 1455 1454 1454 1455 1455 1455 1455 1455 1455 1457 1458 1459 1458 1454 1452 1451 1450 1451 1450 1451 1451 1449 1449 1449 1449 1447 1442 1437 1427 1416 1414 1415 1420 1421 1419 1422 1423 1421 1420 1417 1414 1414 1416 1418 1418 1420 1422 1423 1426 1429 1433 1436 1438
1511 1508 1505 1503 1500 1498 1497 1495 1493 1492 1493 1492 1491 1490 1490 1490 1488 1487 1486 1479 1466 1460 1459 1458 1459 1458 1455 1456 1455 1457 1459 1457 1454 1451 1451 1453 1451 1451 1452 1452 1453 1453 1454 1455 1456 1459 1460 1454 1450 1449 1448 1448 1449 1448 1449 1449 1447 1447 1447 1449 1447 1440 1440 1434 1419 1414 1414 1416 1418 1418 1421 1422 1421 1420 1417 1413 1412 1413 1415 1417 1418 1419 1420 1423 1426 1430 1433 1436
1510 1506 1504 1501 1498 1496 1495 1493 1492 1492 1492 1492 1491 1490 1490 1489 1487 1485 1483 1481 1473 1461 1457 1457 1457 1456 1455 1455 1455 1456 1455 1453 1452 1450 1450 1451 1449 1449 1449 1449 1451 1452 1452 1452 1453 1456 1454 1449 1446 1446 1445 1445 1447 1446 1447 1448 1445 1444 1444 1446 1444 1438 1439 1436 1425 1418 1414 1413 1413 1416 1426 1425 1419 1420 1417 1413 1413 1412 1412 1414 1416 1417 1418 1420 1424 1426 1429 1432
1508 1505 1502 1500 1496 1494 1494 1492 1492 1492 1491 1491 1491 1490 1489 1487 1486 1485 1482 1482 1477 1464 1457 1457 1456 1456 1456 1455 1455 1454 1453 1451 1450 1449 1448 1449 1448 1449 1448 1448 1450 1451 1450 1450 1452 1452 1448 1445 1445 1444 1443 1442 1444 1444 1443 1444 1444 1442 1440 1439 1438 1436 1435 1433 1430 1427 1423 1420 1412 1414 1433 1432 1417 1417 1416 1413 1415 1413 1412 1412 1414 1415 1417 1419 1422 1425 1427 1429
1507 1504 1501 1498 1495 1493 1493 1492 1492 1491 1490 1490 1490 1489 1488 1487 1485 1483 1483 1485 1477 1462 1458 1458 1457 1457 1456 1456 1455 1454 1453 1449 1447 1448 1447 1447 1448 1448 1448 1448 1448 1448 1448 1448 1450 1448 1443 1441 1441 1442 1441 1440 1441 1441 1439 1440 1443 1441 1434 1432 1434 1434 1433 1431 1432 1435 1432 1426 1413 1409 1426 1432 1421 1416 1414 1412 1414 1413 1412 1412 1412 1414 1415 1417 1420 1423 1425 1427
1506 1503 1500 1497 1495 1493 1492 1492 1492 1491 1490 1490 1489 1488 1487 1485 1484 1482 1482 1484 1474 1461 1458 1459 1457 1457 1456 1455 1454 1454 1453 1448 1445 1445 1444 1445 1446 1447 1447 1446 1446 1446 1445 1447 1449 1444 1438 1438 1439 1439 1439 1438 1438 1439 1436 1435 1440 1436 1428 1429 1431 1429 1431 1430 1431 1435 1432 1425 1418 1409 1414 1427 1425 1415 1410 1411 1413 1412 1411 1410 1410 1412 1412 1414 1417 1420 1422 1424
1505 1501 1499 1497 1494 1493 1493 1492 1492 1491 1490 1490 1488 1487 1486 1484 1483 1483 1481 1477 1468 1460 1459 1458 1457 1456 1455 1454 1453 1452 1450 1447 1446 1444 1442 1444 1443 1444 1445 1443 1443 1444 1443 1447 1447 1439 1435 1436 1437 1436 1437 1436 1433 1433 1431 1432 1434 1430 1425 1427 1427 1426 1427 1426 1429 1432 1427 1427 1428 1416 1412 1423 1424 1412 1407 1409 1410 1411 1409 1407 1407 1408 1409 1411 1414 1417 1419 1420
1503 1500 1498 1496 1494 1493 1493 1493 1492 1491 1490 1489 1487 1486 1484 1483 1482 1482 1481 1474 1465 1460 1459 1457 1456 1455 1453 1452 1451 1449 1447 1445 1445 1442 1440 1442 1441 1442 1442 1440 1441 1441 1440 1443 1442 1436 1434 1434 1434 1435 1436 1433 1429 1426 1425 1428 1428 1424 1425 1426 1424 1424 1423 1423 1427 1428 1427 1431 1431 1420 1413 1420 1421 1411 1406 1407 1406 1406 1405 1404 1402 1402 1405 1407 1410 1413 1416 1416
1502 1500 1498 1496 1494 1493 1493 1493 1491 1490 1490 1488 1486 1485 1483 1483 1482 1481 1480 1473 1465 1461 1459 1457 1456 1454 1453 1451 1449 1446 1445 1444 1442 1440 1439 1440 1440 1440 1440 1439 1439 1439 1439 1439 1438 1435 1432 1432 1433 1432 1432 1430 1427 1424 1421 1423 1422 1421 1425 1428 1426 1424 1420 1421 1422 1423 1431 1433 1425 1416 1412 1417 1420 1410 1401 1399 1398 1398 1400 1401 1399 1398 1400 1404 1406 1410 1412 1413
1501 1499 1498 1496 1495 1494 1493 1492 1491 1490 1489 1487 1485 1484 1482 1483 1483 1482 1478 1469 1464 1462 1460 1458 1457 1454 1452 1452 1450 1446 1443 1443 1440 1440 1440 1439 1439 1439 1439 1439 1439 1440 1441 1439 1437 1434 1430 1430 1430 1428 1427 1426 1425 1423 1419 1418 1417 1419 1424 1428 1430 1426 1420 1423 1422 1424 1437 1435 1419 1411 1410 1415 1416 1404 1394 1391 1388 1390 1394 1394 1394 1395 1397 1400 1403 1406 1408 1410
1500 1498 1497 1496 1495 1494 1493 1492 1492 1490 1489 1487 1486 1484 1483 1482 1482 1482 1476 1468 1467 1466 1462 1460 1457 1454 1452 1451 1450 1446 1444 1442 1439 1439 1439 1438 1438 1438 1438 1439 1439 1443 1444 1441 1438 1434 1428 1427 1425 1424 1423 1422 1423 1423 1419 1416 1414 1417 1421 1428 1435 1432 1427 1432 1431 1430 1435 1429 1414 1407 1409 1413 1405 1391 1387 1387 1384 1385 1386 1386 1387 1390 1393 1396 1399 1403 1405 1407
1499 1498 1497 1496 1495 1494 1493 1492 1492 1490 1488 1487 1486 1484 1484 1484 1481 1479 1475 1472 1471 1467 1463 1461 1456 1453 1453 1451 1449 1446 1444 1442 1439 1438 1437 1437 1438 1437 1436 1435 1435 1439 1441 1440 1439 1434 1428 1423 1420 1421 1419 1416 1419 1421 1421 1417 1413 1415 1419 1426 1435 1437 1436 1440 1437 1433 1432 1422 1408 1402 1408 1411 1398 1383 1379 1379 1379 1380 1380 1381 1382 1384 1389 1392 1395 1399 1402 1404
1498 1497 1497 1496 1495 1494 1493 1492 1491 1489 1488 1488 1487 1485 1486 1486 1481 1476 1475 1475 1471 1466 1464 1462 1457 1453 1451 1449 1449 1447 1445 1443 1439 1439 1438 1437 1440 1439 1436 1433 1432 1434 1436 1438 1439 1435 1434 1428 1419 1417 1417 1412 1413 1415 1416 1413 1410 1411 1412 1418 1426 1429 1432 1436 1433 1429 1428 1419 1406 1402 1406 1405 1392 1379 1372 1371 1373 1374 1375 1376 1378 1381 1385 1388 1392 1396 1399 1402
1498 1497 1496 1495 1495 1494 1492 1492 1491 1490 1489 1488 1488 1487 1488 1487 1482 1478 1478 1475 1471 1468 1465 1461 1458 1456 1451 1447 1449 1448 1447 1444 1440 1440 1439 1438 1439 1438 1433 1431 1430 1431 1434 1438 1437 1433 1435 1430 1417 1412 1412 1409 1410 1410 1409 1409 1411 1409 1408 1415 1420 1418 1420 1424 1421 1415 1415 1413 1406 1400 1397 1388 1378 1371 1366 1367 1371 1371 1373 1373 1375 1380 1383 1386 1390 1393 1396 1399
1498 1497 1496 1495 1495 1494 1492 1492 1491 1490 1490 1489 1490 1490 1488 1485 1481 1479 1477 1473 1471 1470 1466 1459 1457 1457 1453 1449 1449 1448 1446 1445 1442 1441 1439 1436 1435 1433 1429 1426 1425 1427 1430 1434 1433 1431 1433 1427 1415 1412 1410 1407 1408 1408 1405 1408 1411 1410 1411 1415 1413 1408 1412 1420 1418 1408 1407 1413 1406 1396 1389 1379 1376 1373 1364 1365 1369 1370 1371 1371 1372 1377 1380 1384 1387 1390 1394 1397
1497 1496 1496 1495 1494 1493 1492 1492 1491 1491 1490 1490 1492 1490 1485 1482 1479 1477 1475 1473 1472 1471 1469 1464 1458 1457 1456 1453 1450 1447 1445 1444 1443 1441 1439 1436 1432 1427 1425 1423 1421 1422 1424 1427 1428 1427 1430 1426 1415 1412 1411 1405 1404 1405 1404 1405 1407 1412 1416 1413 1407 1407 1410 1416 1422 1415 1411 1413 1403 1392 1388 1383 1382 1379 1368 1366 1370 1371 1371 1371 1371 1374 1378 1381 1384 1386 1390 1393
1496 1495 1495 1495 1494 1493 1492 1492 1492 1492 1491 1492 1493 1489 1484 1481 1477 1475 1474 1473 1473 1472 1471 1468 1461 1457 1458 1457 1451 1447 1445 1444 1442 1440 1438 1436 1430 1423 1422 1421 1418 1418 1419 1423 1426 1425 1427 1427 1417 1411 1411 1407 1402 1405 1407 1405 1404 1409 1412 1408 1410 1419 1418 1415 1422 1421 1415 1414 1405 1393 1389 1385 1382 1376 1367 1367 1369 1369 1370 1370 1370 1373 1376 1379 1380 1383 1387 1391
1495 1495 1495 1495 1495 1494 1493 1493 1492 1492 1492 1492 1493 1489 1483 1479 1475 1474 1474 1472 1472 1472 1471 1469 1464 1459 1458 1456 1451 1447 1446 1444 1441 1439 1437 1436 1430 1421 1419 1419 1415 1415 1417 1421 1425 1423 1424 1429 1422 1412 1410 1408 1404 1406 1410 1409 1406 1406 1409 1409 1411 1418 1419 1414 1415 1413 1408 1410 1408 1398 1391 1385 1377 1368 1363 1364 1364 1364 1367 1368 1369 1370 1373 1375 1377 1381 1385 1389
1495 1495 1496 1496 1495 1494 1494 1493 1493 1493 1493 1492 1492 1488 1482 1478 1474 1473 1472 1471 1471 1472 1470 1468 1465 1463 1458 1453 1450 1448 1447 1445 1441 1439 1437 1435 1431 1422 1417 1416 1415 1414 1416 1418 1422 1421 1422 1429 1428 1417 1411 1410 1409 1409 1409 1409 1409 1409 1413 1415 1414 1414 1414 1412 1408 1401 1399 1404 1405 1401 1397 1383 1368 1362 1360 1359 1360 1361 1361 1363 1365 1367 1368 1371 1374 1377 1382 1386
1496 1496 1497 1497 1496 1496 1495 1495 1493 1493 1493 1491 1490 1486 1481 1478 1474 1472 1471 1470 1470 1469 1468 1466 1464 1462 1458 1453 1451 1449 1447 1445 1441 1440 1438 1435 1432 1426 1418 1415 1415 1415 1416 1418 1420 1420 1422 1427 1430 1426 1420 1416 1412 1408 1406 1406 1408 1410 1412 1413 1413 1412 1413 1417 1413 1397 1390 1397 1399 1400 1399 1381 1364 1363 1361 1356 1355 1357 1356 1357 1361 1363 1365 1368 1371 1374 1378 1383
1498 1498 1499 1498 1497 1496 1496 1495 1494 1493 1492 1490 1488 1484 1481 1478 1474 1471 1470 1469 1469 1467 1465 1464 1461 1460 1457 1455 1453 1450 1448 1445 1440 1439 1438 1434 1431 1427 1420 1416 1416 1415 1416 1419 1419 1418 1420 1425 1428 1428 1422 1417 1410 1405 1405 1407 1407 1407 1409 1407 1406 1406 1410 1417 1416 1401 1394 1394 1391 1395 1396 1378 1364 1367 1365 1357 1353 1350 1350 1353 1356 1358 1361 1365 1368 1372 1377 1381
1499 1499 1498 1497 1497 1496 1496 1497 1495 1495 1493 1490 1487 1483 1480 1478 1474 1471 1470 1469 1468 1466 1465 1463 1459 1458 1456 1454 1453 1451 1450 1446 1439 1437 1438 1434 1428 1423 1419 1417 1416 1414 1415 1418 1418 1419 1420 1424 1427 1426 1418 1410 1405 1402 1403 1407 1408 1408 1408 1404 1402 1402 1403 1406 1407 1404 1402 1397 1391 1398 1398 1377 1365 1367 1366 1361 1354 1348 1347 1349 1351 1356 1359 1363 1367 1372 1376 1381
1500 1499 1497 1497 1496 1495 1497 1500 1499 1497 1495 1491 1487 1483 1480 1477 1474 1472 1470 1469 1467 1465 1465 1462 1459 1457 1455 1453 1452 1451 1450 1447 1439 1434 1436 1434 1427 1420 1417 1416 1414 1412 1414 1416 1418 1420 1422 1425 1428 1427 1419 1412 1410 1410 1409 1410 1411 1410 1407 1402 1399 1399 1400 1401 1401 1401 1403 1398 1393 1400 1399 1381 1369 1369 1368 1365 1358 1351 1350 1349 1349 1354 1358 1362 1367 1371 1376 1380
1501 1499 1497 1496 1495 1495 1498 1501 1501 1500 1497 1494 1490 1485 1480 1477 1474 1472 1470 1467 1466 1465 1463 1460 1457 1456 1453 1452 1451 1448 1448 1448 1442 1436 1434 1433 1427 1419 1416 1415 1413 1412 1414 1416 1418 1419 1424 1428 1429 1428 1425 1421 1421 1421 1417 1415 1412 1409 1406 1402 1399 1399 1399 1402 1403 1403 1405 1400 1393 1399 1402 1389 1377 1374 1373 1371 1365 1358 1355 1353 1351 1353 1357 1362 1366 1370 1374 1379
1505 1504 1501 1497 1495 1495 1498 1500 1501 1500 1499 1498 1493 1486 1481 1478 1474 1471 1470 1467 1464 1462 1461 1458 1455 1454 1452 1452 1450 1446 1444 1444 1442 1439 1437 1434 1429 1421 1417 1415 1415 1415 1416 1417 1418 1420 1425 1429 1428 1428 1426 1423 1423 1421 1417 1417 1417 1413 1410 1407 1402 1400 1397 1398 1403 1405 1404 1400 1397 1403 1406 1397 1387 1384 1382 1379 1374 1367 1362 1359 1357 1357 1359 1363 1366 1369 1373 1376
1508 1510 1510 1506 1501 1498 1497 1497 1499 1499 1499 1500 1496 1487 1483 1481 1476 1472 1469 1467 1465 1462 1459 1456 1455 1455 1454 1452 1451 1447 1443 1441 1440 1438 1437 1433 1429 1424 1418 1414 1416 1417 1417 1418 1419 1421 1425 1426 1424 1426 1426 1423 1421 1419 1416 1417 1417 1415 1414 1410 1405 1402 1398 1398 1402 1402 1400 1401 1403 1405 1406 1403 1398 1394 1389 1384 1380 1374 1367 1364 1363 1362 1363 1366 1368 1370 1374 1378
1512 1513 1514 1514 1511 1507 1504 1500 1499 1499 1498 1497 1494 1488 1485 1483 1480 1477 1472 1466 1464 1462 1460 1457 1455 1454 1452 1451 1451 1449 1443 1440 1437 1435 1434 1432 1429 1426 1420 1416 1416 1418 1418 1420 1421 1422 1425 1425 1422 1423 1424 1420 1418 1416 1415 1415 1414 1411 1411 1409 1406 1404 1401 1401 1402 1399 1398 1404 1408 1405 1405 1407 1404 1398 1392 1387 1383 1378 1372 1369 1366 1365 1366 1369 1371 1373 1376 1380
1515 1515 1514 1514 1514 1512 1510 1505 1503 1501 1498 1495 1492 1489 1488 1486 1484 1481 1476 1470 1464 1462 1462 1460 1455 1452 1449 1447 1449 1449 1445 1441 1439 1435 1434 1433 1431 1429 1425 1421 1420 1420 1420 1422 1422 1422 1424 1423 1421 1422 1421 1416 1413 1412 1410 1410 1409 1408 1407 1405 1403 1403 1403 1401 1402 1402 1402 1406 1409 1405 1405 1407 1404 1399 1395 1390 1385 1379 1373 1370 1369 1368 1369 1371 1374 1377 1379 1381
1517 1517 1515 1514 1513 1511 1509 1506 1504 1502 1498 1495 1493 1491 1490 1489 1486 1481 1477 1474 1469 1463 1462 1462 1456 1451 1448 1445 1445 1447 1444 1442 1440 1437 1435 1434 1433 1430 1427 1425 1424 1422 1423 1425 1424 1423 1423 1421 1420 1421 1419 1412 1409 1407 1405 1406 1407 1407 1405 1402 1400 1403 1405 1402 1404 1407 1406 1407 1408 1407 1408 1408 1403 1399 1397 1392 1386 1379 1374 1373 1374 1373 1374 1374 1376 1379 1382 1384
1519 1519 1517 1515 1512 1510 1508 1506 1504 1502 1499 1496 1496 1493 1490 1489 1488 1483 1476 1472 1470 1467 1464 1461 1457 1451 1447 1444 1443 1442 1439 1438 1437 1434 1432 1433 1432 1429 1427 1425 1425 1424 1426 1427 1425 1424 1423 1420 1419 1420 1417 1411 1409 1409 1405 1402 1403 1405 1404 1402 1402 1405 1407 1406 1407 1408 1406 1406 1407 1408 1410 1408 1404 1400 1398 1393 1387 1381 1379 1379 1379 1378 1378 1379 1380 1383 1384 1386
1518 1518 1517 1516 1513 1510 1509 1507 1505 1504 1501 1499 1498 1496 1493 1490 1487 1485 1479 1470 1465 1465 1463 1460 1457 1452 1448 1444 1441 1438 1435 1433 1432 1429 1428 1429 1428 1427 1425 1424 1424 1425 1427 1427 1426 1426 1425 1422 1420 1421 1416 1411 1411 1412 1406 1402 1405 1408 1407 1406 1406 1406 1405 1406 1409 1409 1408 1409 1408 1406 1407 1406 1403 1401 1398 1393 1390 1386 1384 1385 1384 1383 1382 1382 1384 1386 1388 1389